KD9BKH Weather Reports


time (UTC)temp
F
wind
direction
speed
knots
gust
knots
rain 1hr
in
rain 24hr
in
rain mn
in
humidity
%
barometer
mb
20260906083007 71 325 0.9 2.6 0.00 0.06 0.00 89 1015.9
20260906082507 71 325 0.9 2.6 0.00 0.06 0.00 89 1015.9
20260906082006 71 325 0.9 2.6 0.00 0.06 0.00 89 1015.9
20260906081722 71 325 0.9 2.6 0.00 0.06 0.00 89 1015.9
20260906081007 72 351 0.9 1.7 0.00 0.06 0.00 89 1015.9
20260906080720 72 351 0.9 1.7 0.00 0.06 0.00 89 1015.9
20260906080007 72 347 1.7 5.2 0.00 0.06 0.00 90 1015.8
20260906075506 72 347 1.7 5.2 0.00 0.06 0.00 90 1015.8
20260906075008 72 347 1.7 5.2 0.00 0.06 0.00 90 1015.8
20260906074507 72 345 0.9 2.6 0.00 0.06 0.00 91 1015.7
20260906074006 72 345 0.9 2.6 0.00 0.06 0.00 91 1015.7
20260906073506 72 345 0.9 2.6 0.00 0.06 0.00 91 1015.7
20260906073222 72 345 0.9 2.6 0.00 0.06 0.00 91 1015.7
20260906072506 72 325 0.9 1.7 0.00 0.06 0.00 92 1015.7
20260906072007 72 325 0.9 1.7 0.00 0.06 0.00 92 1015.7
20260906071721 72 325 0.9 1.7 0.00 0.06 0.00 92 1015.7
20260906071222 72 321 0.9 1.7 0.00 0.06 0.00 92 1015.6
20260906070506 72 321 0.9 1.7 0.00 0.06 0.00 92 1015.6
20260906070008 72 322 0.0 0.9 0.00 0.06 0.00 92 1016.0
20260906065507 72 322 0.0 0.9 0.00 0.06 0.00 92 1016.0
20260906065006 72 322 0.0 0.9 0.00 0.06 0.00 92 1016.0
20260906064507 72 344 0.0 1.7 0.00 0.06 0.00 92 1015.9
20260906064220 72 344 0.0 1.7 0.00 0.06 0.00 92 1015.9
20260906063507 72 344 0.0 1.7 0.00 0.06 0.00 92 1015.9
20260906063006 72 8 0.0 0.9 0.00 0.06 0.00 91 1015.6
20260906062721 72 8 0.0 0.9 0.00 0.06 0.00 91 1015.6
20260906062222 72 8 0.0 0.9 0.00 0.06 0.00 91 1015.6
20260906061506 73 8 0.0 0.9 0.00 0.06 0.00 90 1015.6
20260906061006 73 8 0.0 0.9 0.00 0.06 0.00 90 1015.6
20260906060506 73 8 0.0 0.9 0.00 0.06 0.00 90 1015.6
20260906060007 73 338 0.0 0.9 0.00 0.06 0.00 90 1015.7
20260906055507 73 338 0.0 0.9 0.00 0.06 0.00 90 1015.7
20260906055007 73 338 0.0 0.9 0.00 0.06 0.00 90 1015.7
20260906054507 74 1 0.9 3.5 0.00 0.06 0.00 89 1015.6
20260906054007 74 1 0.9 3.5 0.00 0.06 0.00 89 1015.6
20260906053506 74 1 0.9 3.5 0.00 0.06 0.00 89 1015.6
20260906053007 74 342 0.9 3.5 0.00 0.06 0.00 90 1015.4
20260906052720 74 342 0.9 3.5 0.00 0.06 0.00 90 1015.4
20260906052221 74 342 0.9 3.5 0.00 0.06 0.00 90 1015.4
20260906051506 74 330 0.9 1.7 0.00 0.06 0.00 91 1015.4
20260906051006 74 330 0.9 1.7 0.00 0.06 0.00 91 1015.4
20260906050720 74 330 0.9 1.7 0.00 0.06 0.00 91 1015.4
20260906050007 74 331 0.9 1.7 0.00 0.06 0.00 92 1015.1
20260906045720 74 331 0.9 1.7 0.00 0.06 0.00 92 1015.1
20260906045221 74 331 0.9 1.7 0.00 0.06 0.00 92 1015.1
20260906044506 74 326 0.9 0.9 0.00 0.06 0.00 92 1015.0
20260906044007 74 326 0.9 0.9 0.00 0.06 0.00 92 1015.0
20260906043506 74 326 0.9 0.9 0.00 0.06 0.00 92 1015.0
20260906043006 74 325 0.9 1.7 0.00 0.06 0.00 91 1015.1
20260906042507 74 325 0.9 1.7 0.00 0.06 0.00 91 1015.1
20260906042221 74 325 0.9 1.7 0.00 0.06 0.00 91 1015.1
20260906041506 74 323 0.9 2.6 0.00 0.06 0.00 91 1015.0
20260906041007 74 323 0.9 2.6 0.00 0.06 0.00 91 1015.0
20260906040507 74 323 0.9 2.6 0.00 0.06 0.00 91 1015.0
20260906040221 74 323 0.9 2.6 0.00 0.06 0.00 91 1015.0
20260906035508 74 328 0.9 1.7 0.00 0.06 0.06 90 1015.0
20260906035007 74 328 0.9 1.7 0.00 0.06 0.06 90 1015.0
20260906034507 74 3 0.9 2.6 0.00 0.06 0.06 90 1015.0
20260906034006 74 3 0.9 2.6 0.00 0.06 0.06 90 1015.0
20260906033506 74 3 0.9 2.6 0.00 0.06 0.06 90 1015.0
20260906033007 74 4 0.9 2.6 0.00 0.06 0.06 88 1014.9
20260906032507 74 4 0.9 2.6 0.00 0.06 0.06 88 1014.9
20260906032221 74 4 0.9 2.6 0.00 0.06 0.06 88 1014.9
20260906031507 74 329 0.9 2.6 0.00 0.06 0.06 88 1014.9
20260906031006 74 329 0.9 2.6 0.00 0.06 0.06 88 1014.9
20260906030506 74 329 0.9 2.6 0.00 0.06 0.06 88 1014.9
20260906030006 75 222 0.9 2.6 0.00 0.06 0.06 87 1014.7
20260906025721 75 222 0.9 2.6 0.00 0.06 0.06 87 1014.7
20260906025007 75 222 0.9 2.6 0.00 0.06 0.06 87 1014.7
20260906024507 75 320 0.9 6.1 0.00 0.06 0.06 86 1014.7
20260906024007 75 320 0.9 6.1 0.00 0.06 0.06 86 1014.7
20260906023506 75 320 0.9 6.1 0.00 0.06 0.06 86 1014.7
20260906023220 75 320 0.9 6.1 0.00 0.06 0.06 86 1014.7
20260906022507 76 348 0.9 1.7 0.00 0.06 0.06 85 1014.4
20260906022007 76 348 0.9 1.7 0.00 0.06 0.06 85 1014.4
20260906021721 76 348 0.9 1.7 0.00 0.06 0.06 85 1014.4
20260906021007 77 315 0.9 3.5 0.00 0.06 0.06 84 1014.2
20260906020508 77 315 0.9 3.5 0.00 0.06 0.06 84 1014.2
20260906020007 78 315 0.9 4.3 0.00 0.06 0.06 83 1014.1
20260906015507 78 315 0.9 4.3 0.00 0.06 0.06 83 1014.1
20260906015006 78 315 0.9 4.3 0.00 0.06 0.06 83 1014.1
20260906014721 78 315 0.9 4.3 0.00 0.06 0.06 83 1014.1
20260906014006 78 313 0.9 5.2 0.00 0.06 0.06 82 1013.8
20260906013507 78 313 0.9 5.2 0.00 0.06 0.06 82 1013.8
20260906013220 78 313 0.9 5.2 0.00 0.06 0.06 82 1013.8
20260906012507 79 344 0.9 1.7 0.00 0.06 0.06 81 1013.8
20260906012220 79 344 0.9 1.7 0.00 0.06 0.06 81 1013.8
20260906011721 79 344 0.9 1.7 0.00 0.06 0.06 81 1013.8
20260906011007 80 313 0.9 2.6 0.00 0.06 0.06 81 1013.7
20260906010507 80 313 0.9 2.6 0.00 0.06 0.06 81 1013.7
20260906010006 81 8 0.9 2.6 0.00 0.06 0.06 82 1013.5
20260906005507 81 8 0.9 2.6 0.00 0.06 0.06 82 1013.5
20260906005006 81 8 0.9 2.6 0.00 0.06 0.06 82 1013.5
20260906004721 81 8 0.9 2.6 0.00 0.06 0.06 82 1013.5
20260906004006 81 179 0.9 4.3 0.00 0.06 0.06 83 1013.3
20260906003721 81 179 0.9 4.3 0.00 0.06 0.06 83 1013.3
20260906003007 82 163 0.9 1.7 0.00 0.06 0.06 83 1013.2
20260906002721 82 163 0.9 1.7 0.00 0.06 0.06 83 1013.2
20260906002006 82 163 0.9 1.7 0.00 0.06 0.06 83 1013.2
20260906001507 82 284 0.9 3.5 0.00 0.06 0.06 83 1013.2
20260906001006 82 284 0.9 3.5 0.00 0.06 0.06 83 1013.2
20260906000507 82 284 0.9 3.5 0.00 0.06 0.06 83 1013.2
20260906000007 83 236 0.9 4.3 0.00 0.06 0.06 81 1013.0
20260905235506 83 236 0.9 4.3 0.00 0.06 0.06 81 1013.0
20260905235221 83 236 0.9 4.3 0.00 0.06 0.06 81 1013.0
20260905234506 83 284 0.9 3.5 0.00 0.06 0.06 81 1013.1
20260905234007 83 284 0.9 3.5 0.00 0.06 0.06 81 1013.1
20260905233506 83 284 0.9 3.5 0.00 0.06 0.06 81 1013.1
20260905233007 84 32 0.0 0.9 0.00 0.06 0.06 83 1012.9
20260905232506 84 32 0.0 0.9 0.00 0.06 0.06 83 1012.9
20260905232007 84 32 0.0 0.9 0.00 0.06 0.06 83 1012.9
20260905231506 84 32 0.0 0.9 0.00 0.06 0.06 85 1012.7
20260905231006 84 32 0.0 0.9 0.00 0.06 0.06 85 1012.7
20260905230506 84 32 0.0 0.9 0.00 0.06 0.06 85 1012.7
20260905230007 84 32 0.9 1.7 0.00 0.06 0.06 83 1012.6
20260905225506 84 32 0.9 1.7 0.00 0.06 0.06 83 1012.6
20260905225007 84 32 0.9 1.7 0.00 0.06 0.06 83 1012.6
20260905224506 84 21 0.9 1.7 0.00 0.06 0.06 80 1012.7
20260905224006 84 21 0.9 1.7 0.00 0.06 0.06 80 1012.7
20260905223508 84 21 0.9 1.7 0.00 0.06 0.06 80 1012.7
20260905223006 85 42 0.0 0.9 0.06 0.06 0.06 80 1012.7
20260905222720 85 42 0.0 0.9 0.06 0.06 0.06 80 1012.7
20260905222007 85 42 0.0 0.9 0.06 0.06 0.06 80 1012.7
20260905221507 84 34 1.7 2.6 0.06 0.06 0.06 73 1012.8
20260905221006 84 34 1.7 2.6 0.06 0.06 0.06 73 1012.8
20260905220507 84 34 1.7 2.6 0.06 0.06 0.06 73 1012.8
20260905220008 82 39 0.9 2.6 0.06 0.06 0.06 82 1012.6
20260905215508 82 39 0.9 2.6 0.06 0.06 0.06 82 1012.6
20260905215006 82 39 0.9 2.6 0.06 0.06 0.06 82 1012.6
20260905214506 83 20 0.9 2.6 0.06 0.06 0.06 75 1012.9
20260905214221 83 20 0.9 2.6 0.06 0.06 0.06 75 1012.9
20260905213506 83 20 0.9 2.6 0.06 0.06 0.06 75 1012.9
20260905213006 93 187 1.7 4.3 0.00 0.00 0.00 61 1012.6
20260905212507 93 187 1.7 4.3 0.00 0.00 0.00 61 1012.6
20260905212007 93 187 1.7 4.3 0.00 0.00 0.00 61 1012.6
20260905211506 93 167 1.7 5.2 0.00 0.00 0.00 60 1012.6
20260905211007 93 167 1.7 5.2 0.00 0.00 0.00 60 1012.6
20260905210721 93 167 1.7 5.2 0.00 0.00 0.00 60 1012.6
20260905210006 93 173 1.7 5.2 0.00 0.00 0.00 63 1012.2
20260905205507 93 173 1.7 5.2 0.00 0.00 0.00 63 1012.2
20260905205006 93 173 1.7 5.2 0.00 0.00 0.00 63 1012.2
20260905204506 92 178 2.6 6.1 0.00 0.00 0.00 63 1012.6
20260905204007 92 178 2.6 6.1 0.00 0.00 0.00 63 1012.6
20260905203508 92 178 2.6 6.1 0.00 0.00 0.00 63 1012.6
20260905203006 92 180 1.7 5.2 0.00 0.00 0.00 62 1012.8
20260905202506 92 180 1.7 5.2 0.00 0.00 0.00 62 1012.8
20260905202006 92 180 1.7 5.2 0.00 0.00 0.00 62 1012.8
20260905201507 92 169 2.6 6.1 0.00 0.00 0.00 61 1013.0
20260905201007 92 169 2.6 6.1 0.00 0.00 0.00 61 1013.0
20260905200506 92 169 2.6 6.1 0.00 0.00 0.00 61 1013.0
20260905200007 90 179 1.7 5.2 0.00 0.00 0.00 63 1013.2
20260905195507 90 179 1.7 5.2 0.00 0.00 0.00 63 1013.2
20260905195006 90 179 1.7 5.2 0.00 0.00 0.00 63 1013.2
20260905194507 92 192 1.7 4.3 0.00 0.00 0.00 58 1013.5
20260905194006 92 192 1.7 4.3 0.00 0.00 0.00 58 1013.5
20260905193508 92 192 1.7 4.3 0.00 0.00 0.00 58 1013.5
20260905193007 92 164 1.7 3.5 0.00 0.00 0.00 60 1013.4
20260905192506 92 164 1.7 3.5 0.00 0.00 0.00 60 1013.4
20260905192220 92 164 1.7 3.5 0.00 0.00 0.00 60 1013.4
20260905191723 92 164 1.7 3.5 0.00 0.00 0.00 60 1013.4
20260905191006 92 41 1.7 4.3 0.00 0.00 0.00 61 1013.6
20260905190506 92 41 1.7 4.3 0.00 0.00 0.00 61 1013.6
20260905190222 92 41 1.7 4.3 0.00 0.00 0.00 61 1013.6
20260905185506 91 180 1.7 3.5 0.00 0.00 0.00 58 1013.9
20260905185006 91 180 1.7 3.5 0.00 0.00 0.00 58 1013.9
20260905184506 91 167 1.7 3.5 0.00 0.00 0.00 58 1014.3
20260905184221 91 167 1.7 3.5 0.00 0.00 0.00 58 1014.3
20260905183507 91 167 1.7 3.5 0.00 0.00 0.00 58 1014.3
20260905183007 90 187 1.7 2.6 0.00 0.00 0.00 60 1014.4
20260905182506 90 187 1.7 2.6 0.00 0.00 0.00 60 1014.4
20260905182007 90 187 1.7 2.6 0.00 0.00 0.00 60 1014.4
20260905181006 90 109 1.7 6.1 0.00 0.00 0.00 59 1014.5
20260905180506 90 109 1.7 6.1 0.00 0.00 0.00 59 1014.5
20260905180006 89 73 2.6 7.0 0.00 0.00 0.00 60 1014.7
20260905175506 89 73 2.6 7.0 0.00 0.00 0.00 60 1014.7
20260905175006 89 73 2.6 7.0 0.00 0.00 0.00 60 1014.7
20260905174720 89 73 2.6 7.0 0.00 0.00 0.00 60 1014.7
20260905174007 89 47 1.7 6.1 0.00 0.00 0.00 60 1014.6
20260905173722 89 47 1.7 6.1 0.00 0.00 0.00 60 1014.6
20260905173007 88 9 2.6 5.2 0.00 0.00 0.00 63 1014.9
20260905172506 88 9 2.6 5.2 0.00 0.00 0.00 63 1014.9
20260905172007 88 9 2.6 5.2 0.00 0.00 0.00 63 1014.9
20260905171506 87 27 2.6 6.1 0.00 0.00 0.00 61 1015.1
20260905171007 87 27 2.6 6.1 0.00 0.00 0.00 61 1015.1
20260905170507 87 27 2.6 6.1 0.00 0.00 0.00 61 1015.1
20260905170007 88 115 1.7 6.1 0.00 0.00 0.00 59 1015.2
20260905165508 88 115 1.7 6.1 0.00 0.00 0.00 59 1015.2
20260905165221 88 115 1.7 6.1 0.00 0.00 0.00 59 1015.2
20260905164507 87 122 1.7 5.2 0.00 0.00 0.00 63 1015.2
20260905164006 87 122 1.7 5.2 0.00 0.00 0.00 63 1015.2
20260905163507 87 122 1.7 5.2 0.00 0.00 0.00 63 1015.2
20260905163006 86 358 0.9 3.5 0.00 0.00 0.00 63 1015.0
20260905162507 86 358 0.9 3.5 0.00 0.00 0.00 63 1015.0
20260905162007 86 358 0.9 3.5 0.00 0.00 0.00 63 1015.0
20260905161507 85 10 2.6 6.1 0.00 0.00 0.00 66 1014.9
20260905161006 85 10 2.6 6.1 0.00 0.00 0.00 66 1014.9
20260905160507 85 10 2.6 6.1 0.00 0.00 0.00 66 1014.9
20260905160006 84 29 2.6 8.7 0.00 0.00 0.00 66 1015.1
20260905155506 84 29 2.6 8.7 0.00 0.00 0.00 66 1015.1
20260905155006 84 29 2.6 8.7 0.00 0.00 0.00 66 1015.1
20260905154507 82 51 1.7 5.2 0.00 0.00 0.00 67 1015.2
20260905154006 82 51 1.7 5.2 0.00 0.00 0.00 67 1015.2
20260905153721 82 51 1.7 5.2 0.00 0.00 0.00 67 1015.2
20260905153007 82 7 1.7 5.2 0.00 0.00 0.00 66 1015.3
20260905152721 82 7 1.7 5.2 0.00 0.00 0.00 66 1015.3
20260905152008 82 7 1.7 5.2 0.00 0.00 0.00 66 1015.3
20260905151506 82 13 3.5 9.6 0.00 0.00 0.00 67 1015.6
20260905151006 82 13 3.5 9.6 0.00 0.00 0.00 67 1015.6
20260905150721 82 13 3.5 9.6 0.00 0.00 0.00 67 1015.6
20260905150220 82 13 3.5 9.6 0.00 0.00 0.00 67 1015.6
20260905145507 81 9 2.6 8.7 0.00 0.00 0.00 70 1015.3
20260905145006 81 9 2.6 8.7 0.00 0.00 0.00 70 1015.3
20260905144507 79 356 2.6 7.8 0.00 0.00 0.00 73 1015.3
20260905144006 79 356 2.6 7.8 0.00 0.00 0.00 73 1015.3
20260905143507 79 356 2.6 7.8 0.00 0.00 0.00 73 1015.3
20260905143006 79 352 2.6 5.2 0.00 0.00 0.00 72 1015.3
20260905142507 79 352 2.6 5.2 0.00 0.00 0.00 72 1015.3
20260905142007 79 352 2.6 5.2 0.00 0.00 0.00 72 1015.3
20260905141721 79 352 2.6 5.2 0.00 0.00 0.00 72 1015.3
20260905141007 77 352 2.6 8.7 0.00 0.00 0.00 75 1015.5
20260905140507 77 352 2.6 8.7 0.00 0.00 0.00 75 1015.5
20260905140007 79 5 2.6 7.0 0.00 0.00 0.00 73 1015.4
20260905135507 79 5 2.6 7.0 0.00 0.00 0.00 73 1015.4
20260905135007 79 5 2.6 7.0 0.00 0.00 0.00 73 1015.4
20260905134506 78 353 3.5 8.7 0.00 0.00 0.00 75 1015.4
20260905134007 78 353 3.5 8.7 0.00 0.00 0.00 75 1015.4
20260905133506 78 353 3.5 8.7 0.00 0.00 0.00 75 1015.4
20260905133007 79 356 3.5 7.0 0.00 0.00 0.00 78 1015.4
20260905132506 79 356 3.5 7.0 0.00 0.00 0.00 78 1015.4
20260905132007 79 356 3.5 7.0 0.00 0.00 0.00 78 1015.4
20260905131506 78 355 3.5 8.7 0.00 0.00 0.00 83 1015.5
20260905131007 78 355 3.5 8.7 0.00 0.00 0.00 83 1015.5
20260905130506 78 355 3.5 8.7 0.00 0.00 0.00 83 1015.5
20260905130006 78 357 2.6 5.2 0.00 0.00 0.00 87 1015.4
20260905125507 78 357 2.6 5.2 0.00 0.00 0.00 87 1015.4
20260905125221 78 357 2.6 5.2 0.00 0.00 0.00 87 1015.4
20260905124506 76 360 1.7 4.3 0.00 0.00 0.00 90 1015.2
20260905124006 76 360 1.7 4.3 0.00 0.00 0.00 90 1015.2
20260905123507 76 360 1.7 4.3 0.00 0.00 0.00 90 1015.2
20260905123006 74 0 0.0 0.0 0.00 0.00 0.00 95 1014.9
20260905122506 74 0 0.0 0.0 0.00 0.00 0.00 95 1014.9
20260905122008 74 0 0.0 0.0 0.00 0.00 0.00 95 1014.9
20260905121507 74 0 0.0 0.0 0.00 0.00 0.00 95 1014.5
20260905121006 74 0 0.0 0.0 0.00 0.00 0.00 95 1014.5
20260905120507 74 0 0.0 0.0 0.00 0.00 0.00 95 1014.5
20260905120006 73 0 0.0 0.0 0.00 0.00 0.00 95 1014.4
20260905115506 73 0 0.0 0.0 0.00 0.00 0.00 95 1014.4
20260905115221 73 0 0.0 0.0 0.00 0.00 0.00 95 1014.4
20260905114720 73 0 0.0 0.0 0.00 0.00 0.00 95 1014.4
20260905114008 73 0 0.0 0.0 0.00 0.00 0.00 95 1014.4
20260905113506 73 0 0.0 0.0 0.00 0.00 0.00 95 1014.4
20260905113014 74 0 0.0 0.0 0.00 0.00 0.00 95 1014.2
20260905112507 74 0 0.0 0.0 0.00 0.00 0.00 95 1014.2
20260905112006 74 0 0.0 0.0 0.00 0.00 0.00 95 1014.2
20260905111506 74 0 0.0 0.0 0.00 0.00 0.00 95 1014.2
20260905111006 74 0 0.0 0.0 0.00 0.00 0.00 95 1014.2
20260905110508 74 0 0.0 0.0 0.00 0.00 0.00 95 1014.2
20260905110006 74 136 0.0 0.9 0.00 0.00 0.00 96 1014.2
20260905105722 74 136 0.0 0.9 0.00 0.00 0.00 96 1014.2
20260905105006 74 136 0.0 0.9 0.00 0.00 0.00 96 1014.2
20260905104507 74 0 0.0 0.0 0.00 0.00 0.00 96 1014.3
20260905104220 74 0 0.0 0.0 0.00 0.00 0.00 96 1014.3
20260905103506 74 0 0.0 0.0 0.00 0.00 0.00 96 1014.3
20260905103008 74 0 0.0 0.0 0.00 0.00 0.00 96 1014.1
20260905102506 74 0 0.0 0.0 0.00 0.00 0.00 96 1014.1
20260905102007 74 0 0.0 0.0 0.00 0.00 0.00 96 1014.1
20260905101719 74 0 0.0 0.0 0.00 0.00 0.00 96 1014.1
20260905101007 74 0 0.0 0.0 0.00 0.00 0.00 96 1014.2
20260905100507 74 0 0.0 0.0 0.00 0.00 0.00 96 1014.2
20260905100006 74 0 0.0 0.0 0.00 0.00 0.00 96 1014.3
20260905095506 74 0 0.0 0.0 0.00 0.00 0.00 96 1014.3
20260905095007 74 0 0.0 0.0 0.00 0.00 0.00 96 1014.3
20260905094508 74 0 0.0 0.0 0.00 0.00 0.00 96 1014.3
20260905094006 74 0 0.0 0.0 0.00 0.00 0.00 96 1014.3
20260905093719 74 0 0.0 0.0 0.00 0.00 0.00 96 1014.3
20260905093007 74 0 0.0 0.0 0.00 0.00 0.00 96 1014.2
20260905092507 74 0 0.0 0.0 0.00 0.00 0.00 96 1014.2
20260905092220 74 0 0.0 0.0 0.00 0.00 0.00 96 1014.2
20260905091506 73 0 0.0 0.0 0.00 0.00 0.00 96 1014.0
20260905091008 73 0 0.0 0.0 0.00 0.00 0.00 96 1014.0
20260905090506 73 0 0.0 0.0 0.00 0.00 0.00 96 1014.0
20260905090007 73 0 0.0 0.0 0.00 0.00 0.00 96 1014.0
20260905085507 73 0 0.0 0.0 0.00 0.00 0.00 96 1014.0
20260905085007 73 0 0.0 0.0 0.00 0.00 0.00 96 1014.0
20260905084506 74 0 0.0 0.0 0.00 0.00 0.00 96 1013.8
20260905084007 74 0 0.0 0.0 0.00 0.00 0.00 96 1013.8
20260905083721 74 0 0.0 0.0 0.00 0.00 0.00 96 1013.8